sat.trackr.live / text

‹ back to catalog

ION SCV-022

NORAD 66682 · 2025-276S

PAYLOAD ACTIVE UNKNOWN

§ Identity

Operator
Country
IT
Launch date
2025-11-28
Launch site
AFWTR
Launch vehicle
Mass (kg)
RCS (m²)

External: N2YO · Heavens-Above · Gunter

§ Orbital elements

Epoch: 2026-09-19T10:29:16.333440Z

Period
96.13 min
Inclination
97.5204°
Eccentricity
0.0004805
Mean motion
14.98044033 rev/d
Perigee alt
569.6 km
Apogee alt
576.3 km
Semi-major
6,951.1 km
B*
-1.0841e-6
RAAN
329.7258°
Arg perigee
205.1493°
Mean anomaly
154.9496°
Rev number
4,418

§ Raw data

ION SCV-0221 66682U 25276S   26262.43699460 -.00000069  00000+0 -10841-5 0  99942 66682  97.5204 329.7258 0004805 205.1493 154.9496 14.98044033 44185

JSON: /api/v1/satellites/66682 · /tle

For live sub-satellite position, see the globe view (requires WebGL).

§ Visibility from observer

Set your observer location to see the next 7 days of passes ≥ 10°. The values pass through the URL so the page stays shareable.

No JS? Fill the form by hand. The geolocation button needs JavaScript.

§ Radio — SatNOGS DB

ModeDescriptionDownlinkUplink
FM S-band telemetry 2.252 GHz
FM S-band telemetry 2.254 GHz

2 transmitters · refreshed weekly from db.satnogs.org